This demonstration page uses our WeatherBlox Daily Observations layout. Learn more.

39.08367, -84.50855

Hourly Observations for January 28, 2020

Temp ( °F °C ) Dew Point ( °F °C ) Humidity (%) Winds ( mph kmh ) Pressure ( in mb ) Visibility ( mi km ) Precip ( " mm )
12:45 am 00:45 Cloudy 35 1.7 29 -1.7 78 78 NNW 6 9 30.08 1019 8 12.87472 0 0
12:53 am 00:53 Cloudy 35 1.7 29 -1.7 78 78 N 7 11 30.07 1018 8 12.87472 0 0
1:00 am 01:00 Cloudy 35 1.7 29 -1.7 78 78 N 8 13 30.08 1019 8 12.87472 0 0
1:09 am 01:09 Cloudy 34 1.1 29 -1.7 82 82 NNW 8 13 30.09 1019 8 12.87472 0 0
1:53 am 01:53 Cloudy 34 1.1 29 -1.7 82 82 NW 3 6 30.06 1018 8 12.87472 0 0
2:53 am 02:53 Cloudy 34 1.1 30 -1.1 85 85 WNW 5 7 30.08 1019 8 12.87472 0 0
3:53 am 03:53 Cloudy 34 1.1 29 -1.7 82 82 W 5 7 30.08 1019 8 12.87472 0 0
4:53 am 04:53 Cloudy 34 1.1 29 -1.7 82 82 WNW 3 6 30.08 1019 8 12.87472 0 0
5:53 am 05:53 Cloudy 34 1.1 29 -1.7 82 82 NW 3 6 30.09 1019 10 16.0934 0 0
6:53 am 06:53 Cloudy 34 1.1 28 -2.2 79 79 Calm 30.1 1019 10 16.0934 0 0
7:53 am 07:53 Cloudy 35 1.7 27 -2.8 72 72 NE 3 6 30.11 1020 10 16.0934 0 0
8:53 am 08:53 Cloudy 35 1.7 28 -2.2 76 76 WNW 5 7 30.13 1020 10 16.0934 0 0
9:53 am 09:53 Cloudy 35 1.7 28 -2.2 76 76 W 6 9 30.14 1021 10 16.0934 0 0
10:53 am 10:53 Cloudy 36 2.2 27 -2.8 70 70 WNW 3 6 30.14 1021 10 16.0934 0 0
11:53 am 11:53 Cloudy 36 2.2 28 -2.2 73 73 Calm 30.14 1021 10 16.0934 0 0
12:53 pm 12:53 Cloudy 36 2.2 28 -2.2 73 73 WNW 5 7 30.11 1020 10 16.0934 0 0
1:53 pm 13:53 Cloudy 36 2.2 29 -1.7 76 76 N 3 6 30.09 1019 10 16.0934 0 0
2:53 pm 14:53 Cloudy 36 2.2 29 -1.7 76 76 WNW 7 11 30.09 1019 10 16.0934 0 0
3:53 pm 15:53 Cloudy 36 2.2 29 -1.7 76 76 NNW 5 7 30.1 1019 10 16.0934 0 0
4:53 pm 16:53 Cloudy 36 2.2 28 -2.2 73 73 WSW 7 11 30.11 1020 10 16.0934 0 0
5:53 pm 17:53 Cloudy 35 1.7 28 -2.2 76 76 NW 7 11 30.13 1020 10 16.0934 0 0
6:53 pm 18:53 Cloudy 35 1.7 29 -1.7 78 78 Calm 30.12 1020 10 16.0934 0 0
7:53 pm 19:53 Cloudy 35 1.7 29 -1.7 78 78 Calm 30.13 1020 10 16.0934 0 0
8:53 pm 20:53 Cloudy 35 1.7 28 -2.2 76 76 N 5 7 30.14 1021 10 16.0934 0 0
9:53 pm 21:53 Cloudy 35 1.7 29 -1.7 78 78 N 5 7 30.14 1021 10 16.0934 0 0
10:53 pm 22:53 Cloudy 35 1.7 29 -1.7 78 78 Calm 30.13 1020 10 16.0934 0 0
11:53 pm 23:53 Cloudy 34 1.1 30 -1.1 85 85 Calm 30.14 1021 10 16.0934 0 0

Powered by AerisWeather